CW4740 Weather Reports


Display with metric or nautical units.
time (UTC)temp
F
wind
direction
speed
MPH
gust
MPH
rain 1hr
in
rain 24hr
in
rain mn
in
humidity
%
barometer
mb
20260510220213 86 132 7.0 11.0 0.00 0.00 0.00 80 1015.4
20260510215721 85 137 4.0 16.0 0.00 0.00 0.00 80 1015.4
20260510215157 85 128 7.0 18.0 0.00 0.00 0.00 79 1015.4
20260510214714 85 150 9.0 18.0 0.00 0.00 0.00 79 1015.5
20260510214130 86 128 9.0 16.0 0.00 0.00 0.00 79 1015.4
20260510213647 86 126 7.0 17.0 0.00 0.00 0.00 80 1015.2
20260510213144 86 142 7.0 17.0 0.00 0.00 0.00 80 1015.2
20260510212641 87 145 10.0 17.0 0.00 0.00 0.00 79 1015.2
20260510212138 86 128 7.0 16.0 0.00 0.00 0.00 80 1015.2
20260510211654 86 113 7.0 16.0 0.00 0.00 0.00 80 1015.2
20260510211149 87 126 9.0 18.0 0.00 0.00 0.00 79 1015.4
20260510210706 87 166 10.0 19.0 0.00 0.00 0.00 78 1015.4
20260510210202 87 150 9.0 16.0 0.00 0.00 0.00 78 1015.4
20260510205628 87 192 7.0 17.0 0.00 0.00 0.00 78 1015.4
20260510205226 87 158 9.0 17.0 0.00 0.00 0.00 77 1015.4
20260510204700 87 146 7.0 12.0 0.00 0.00 0.00 76 1015.3
20260510204154 87 161 6.0 18.0 0.00 0.00 0.00 77 1015.4
20260510203650 88 136 9.0 18.0 0.00 0.00 0.00 76 1015.5
20260510203203 88 108 8.0 16.0 0.00 0.00 0.00 76 1015.5
20260510202644 87 192 9.0 15.0 0.00 0.00 0.00 76 1015.4
20260510202200 88 134 7.0 15.0 0.00 0.00 0.00 76 1015.5
20260510201656 88 159 8.0 18.0 0.00 0.00 0.00 76 1015.5
20260510201151 88 132 7.0 18.0 0.00 0.00 0.00 76 1015.5
20260510200646 87 136 5.0 18.0 0.00 0.00 0.00 77 1015.7
20260510200142 88 134 9.0 17.0 0.00 0.00 0.00 76 1015.7
20260510195631 88 130 9.0 19.0 0.00 0.00 0.00 76 1015.6
20260510195244 88 142 10.0 22.0 0.00 0.00 0.00 76 1015.6
20260510195140 88 142 10.0 22.0 0.00 0.00 0.00 76 1015.6
20260510194642 88 161 10.0 22.0 0.00 0.00 0.00 75 1015.8
20260510194139 88 121 8.0 16.0 0.00 0.00 0.00 76 1015.9
20260510193636 88 194 7.0 16.0 0.00 0.00 0.00 76 1015.9
20260510193154 87 128 9.0 15.0 0.00 0.00 0.00 77 1016.0
20260510192651 87 115 8.0 15.0 0.00 0.00 0.00 77 1015.9
20260510192128 87 120 8.0 19.0 0.00 0.00 0.00 77 1016.1
20260510191645 87 178 12.0 19.0 0.00 0.00 0.00 75 1016.1
20260510191142 88 132 9.0 16.0 0.00 0.00 0.00 75 1016.0
20260510190719 88 136 9.0 16.0 0.00 0.00 0.00 75 1016.1
20260510190134 88 159 7.0 15.0 0.00 0.00 0.00 75 1016.2
20260510185641 88 137 7.0 14.0 0.00 0.00 0.00 75 1016.2
20260510185158 88 112 9.0 14.0 0.00 0.00 0.00 76 1016.3
20260510184634 88 146 5.0 15.0 0.00 0.00 0.00 78 1016.3
20260510184132 88 126 9.0 17.0 0.00 0.00 0.00 77 1016.5
20260510183630 88 113 7.0 17.0 0.00 0.00 0.00 77 1016.4
20260510183208 87 123 7.0 17.0 0.00 0.00 0.00 77 1016.4
20260510182745 88 144 9.0 17.0 0.00 0.00 0.00 76 1016.5
20260510182140 88 132 9.0 18.0 0.00 0.00 0.00 76 1016.5
20260510181658 88 119 10.0 18.0 0.00 0.00 0.00 75 1016.5
20260510181155 88 113 8.0 17.0 0.00 0.00 0.00 75 1016.7
20260510180652 88 111 10.0 17.0 0.00 0.00 0.00 75 1016.7
20260510180129 88 125 9.0 17.0 0.00 0.00 0.00 73 1016.7
20260510175637 88 130 8.0 17.0 0.00 0.00 0.00 76 1016.6
20260510175136 88 149 6.0 16.0 0.00 0.00 0.00 76 1016.6
20260510174654 88 131 8.0 16.0 0.00 0.00 0.00 72 1016.6
20260510174130 89 138 9.0 15.0 0.00 0.00 0.00 73 1016.5
20260510173708 89 89 8.0 11.0 0.00 0.00 0.00 73 1016.6
20260510173144 89 136 6.0 13.0 0.00 0.00 0.00 72 1016.5
20260510172722 89 137 7.0 13.0 0.00 0.00 0.00 71 1016.7
20260510172138 89 117 4.0 14.0 0.00 0.00 0.00 74 1016.8
20260510171636 89 103 6.0 14.0 0.00 0.00 0.00 74 1016.8
20260510171134 89 128 8.0 15.0 0.00 0.00 0.00 74 1016.8
20260510170711 88 126 5.0 14.0 0.00 0.00 0.00 73 1017.0
20260510170207 88 148 5.0 18.0 0.00 0.00 0.00 73 1017.1
20260510165715 89 165 7.0 13.0 0.00 0.00 0.00 74 1017.1
20260510165150 89 155 7.0 14.0 0.00 0.00 0.00 73 1017.0
20260510164707 89 92 7.0 16.0 0.00 0.00 0.00 71 1017.0
20260510164144 89 118 9.0 16.0 0.00 0.00 0.00 70 1017.0
20260510163642 88 142 7.0 16.0 0.00 0.00 0.00 71 1017.0
20260510163200 89 149 8.0 16.0 0.00 0.00 0.00 70 1017.3
20260510162656 89 135 8.0 16.0 0.00 0.00 0.00 71 1017.3
20260510162131 89 162 7.0 16.0 0.00 0.00 0.00 71 1017.4
20260510161629 89 152 8.0 16.0 0.00 0.00 0.00 70 1017.4
20260510161147 89 113 6.0 13.0 0.00 0.00 0.00 71 1017.4
20260510160644 88 105 7.0 12.0 0.00 0.00 0.00 71 1017.5
20260510160142 88 124 6.0 12.0 0.00 0.00 0.00 72 1017.5
20260510155631 88 272 5.0 9.0 0.00 0.00 0.00 72 1017.5
20260510155149 88 166 5.0 10.0 0.00 0.00 0.00 73 1017.4
20260510154645 87 146 4.0 10.0 0.00 0.00 0.00 75 1017.4
20260510154202 87 182 6.0 11.0 0.00 0.00 0.00 75 1017.4
20260510153638 87 157 7.0 11.0 0.00 0.00 0.00 75 1017.3
20260510153139 87 142 8.0 14.0 0.00 0.00 0.00 76 1017.3
20260510152636 86 113 6.0 14.0 0.00 0.00 0.00 77 1017.3
20260510152153 86 105 6.0 12.0 0.00 0.00 0.00 78 1017.2
20260510151650 87 111 6.0 12.0 0.00 0.00 0.00 79 1017.1
20260510151147 87 128 7.0 12.0 0.00 0.00 0.00 77 1017.0
20260510150643 87 137 5.0 12.0 0.00 0.00 0.00 78 1017.1
20260510150202 87 162 6.0 10.0 0.00 0.00 0.00 77 1017.2
20260510145631 87 175 4.0 9.0 0.00 0.00 0.00 78 1017.1
20260510145249 87 128 6.0 10.0 0.00 0.00 0.00 79 1017.2
20260510145206 87 128 6.0 10.0 0.00 0.00 0.00 79 1017.2
20260510144642 86 134 4.0 10.0 0.00 0.00 0.00 79 1017.1
20260510144139 86 115 5.0 10.0 0.00 0.00 0.00 80 1016.9
20260510143657 86 138 6.0 10.0 0.00 0.00 0.00 80 1016.9
20260510143153 85 135 3.0 9.0 0.00 0.00 0.00 81 1016.9
20260510142629 85 153 4.0 9.0 0.00 0.00 0.00 80 1017.0
20260510142147 85 107 4.0 9.0 0.00 0.00 0.00 80 1017.0
20260510141645 85 150 3.0 11.0 0.00 0.00 0.00 79 1017.0
20260510141143 86 107 7.0 11.0 0.00 0.00 0.00 79 1017.0
20260510140641 86 132 4.0 10.0 0.00 0.00 0.00 78 1017.0
20260510140140 86 145 2.0 11.0 0.00 0.00 0.00 78 1017.1
20260510135629 86 93 4.0 11.0 0.00 0.00 0.00 78 1017.1
20260510135128 86 144 2.0 10.0 0.00 0.00 0.00 78 1017.1
20260510134646 86 144 3.0 10.0 0.00 0.00 0.00 79 1017.2
20260510134145 86 151 5.0 12.0 0.00 0.00 0.00 78 1017.1
20260510133641 86 127 5.0 12.0 0.00 0.00 0.00 78 1017.2
20260510133236 86 98 5.0 11.0 0.00 0.00 0.00 79 1017.1
20260510133154 86 98 5.0 11.0 0.00 0.00 0.00 79 1017.1
20260510132629 86 146 5.0 9.0 0.00 0.00 0.00 79 1017.1
20260510132147 86 117 4.0 9.0 0.00 0.00 0.00 80 1017.1
20260510131704 85 149 2.0 6.0 0.00 0.00 0.00 80 1017.1
20260510131140 85 149 3.0 8.0 0.00 0.00 0.00 81 1017.0
20260510130657 85 157 4.0 8.0 0.00 0.00 0.00 80 1017.0
20260510130134 85 205 1.0 7.0 0.00 0.00 0.00 81 1017.0
20260510125741 85 127 2.0 7.0 0.00 0.00 0.00 82 1016.9
20260510125659 85 127 2.0 7.0 0.00 0.00 0.00 82 1016.9
20260510125156 84 153 1.0 6.0 0.00 0.00 0.00 83 1016.9
20260510124630 84 188 1.0 6.0 0.00 0.00 0.00 83 1017.0
20260510124148 84 145 1.0 7.0 0.00 0.00 0.00 84 1016.8
20260510123645 84 145 3.0 7.0 0.00 0.00 0.00 84 1016.8
20260510123143 83 195 2.0 7.0 0.00 0.00 0.00 85 1016.6
20260510122641 83 189 4.0 7.0 0.00 0.00 0.00 86 1016.7
20260510122158 83 138 2.0 5.0 0.00 0.00 0.00 86 1016.5
20260510121653 83 112 2.0 5.0 0.00 0.00 0.00 86 1016.3
20260510121229 83 179 1.0 5.0 0.00 0.00 0.00 86 1016.3
20260510120645 82 155 0.0 5.0 0.00 0.00 0.00 87 1016.2
20260510120203 82 155 2.0 5.0 0.00 0.00 0.00 87 1016.2
20260510115632 82 261 0.0 2.0 0.00 0.00 0.00 88 1016.1
20260510115130 81 261 1.0 1.0 0.00 0.00 0.00 88 1016.2
20260510114708 81 262 0.0 0.0 0.00 0.00 0.00 88 1016.2
20260510114146 80 262 0.0 0.0 0.00 0.00 0.00 89 1016.1
20260510113724 79 262 0.0 0.0 0.00 0.00 0.00 89 1016.0
20260510113200 79 262 0.0 0.0 0.00 0.00 0.00 90 1015.8
20260510112637 78 262 0.0 0.0 0.00 0.00 0.00 90 1015.7
20260510112153 78 262 0.0 0.0 0.00 0.00 0.00 90 1015.6
20260510111729 78 262 0.0 0.0 0.00 0.00 0.00 90 1015.6
20260510111145 78 262 0.0 0.0 0.00 0.00 0.00 89 1015.4
20260510110642 78 262 0.0 0.0 0.00 0.00 0.00 89 1015.4
20260510110141 78 262 0.0 0.0 0.00 0.00 0.00 89 1015.4
20260510105629 78 262 0.0 1.0 0.00 0.00 0.00 89 1015.3
20260510105127 78 262 0.0 1.0 0.00 0.00 0.00 89 1015.2
20260510104704 78 205 0.0 0.0 0.00 0.00 0.00 89 1015.2
20260510104201 78 205 0.0 0.0 0.00 0.00 0.00 89 1015.2
20260510103657 78 205 0.0 0.0 0.00 0.00 0.00 88 1015.1
20260510103134 78 205 0.0 0.0 0.00 0.00 0.00 89 1015.2
20260510102632 78 205 0.0 1.0 0.00 0.00 0.00 89 1015.1
20260510102129 78 205 0.0 2.0 0.00 0.00 0.00 89 1015.0
20260510101706 78 205 0.0 2.0 0.00 0.00 0.00 89 1014.9
20260510101143 78 205 1.0 2.0 0.00 0.00 0.00 90 1014.8
20260510100640 78 205 0.0 1.0 0.00 0.00 0.00 90 1014.9
20260510100158 78 205 0.0 2.0 0.00 0.00 0.00 90 1014.8
20260510095645 78 205 0.0 2.0 0.00 0.00 0.00 90 1014.8
20260510095201 78 205 0.0 1.0 0.00 0.00 0.00 90 1014.7
20260510094635 78 205 0.0 2.0 0.00 0.00 0.00 90 1014.7
20260510094132 78 205 0.0 2.0 0.00 0.00 0.00 90 1014.7
20260510093629 78 205 0.0 1.0 0.00 0.00 0.00 90 1014.7
20260510093207 78 205 0.0 1.0 0.00 0.00 0.00 90 1014.7
20260510092704 78 205 0.0 1.0 0.00 0.00 0.00 90 1014.7
20260510092221 78 205 0.0 1.0 0.00 0.00 0.00 90 1014.7
20260510091637 78 205 0.0 0.0 0.00 0.00 0.00 89 1014.6
20260510091135 78 205 0.0 1.0 0.00 0.00 0.00 89 1014.5
20260510090712 78 205 0.0 1.0 0.00 0.00 0.00 89 1014.5
20260510090207 79 205 0.0 1.0 0.00 0.00 0.00 89 1014.4
20260510085634 78 205 0.0 0.0 0.00 0.00 0.00 89 1014.3
20260510085152 79 205 0.0 0.0 0.00 0.00 0.00 89 1014.4
20260510084629 79 205 0.0 0.0 0.00 0.00 0.00 88 1014.5
20260510084226 79 205 0.0 1.0 0.00 0.00 0.00 88 1014.5
20260510083703 79 205 0.0 1.0 0.00 0.00 0.00 88 1014.4
20260510083200 79 205 0.0 1.0 0.00 0.00 0.00 88 1014.5
20260510082657 79 205 0.0 0.0 0.00 0.00 0.00 88 1014.5
20260510082233 79 205 0.0 1.0 0.00 0.00 0.00 88 1014.4
20260510081646 79 205 0.0 1.0 0.00 0.00 0.00 88 1014.5
20260510081144 79 205 0.0 1.0 0.00 0.00 0.00 88 1014.5
20260510080722 79 205 0.0 0.0 0.00 0.00 0.00 87 1014.4
20260510080239 79 205 0.0 0.0 0.00 0.00 0.00 87 1014.4
20260510080157 79 205 0.0 0.0 0.00 0.00 0.00 87 1014.4
20260510075645 80 205 0.0 0.0 0.00 0.00 0.00 87 1014.5
20260510075142 80 205 0.0 1.0 0.00 0.00 0.00 87 1014.5
20260510074700 80 205 0.0 1.0 0.00 0.00 0.00 87 1014.7
20260510074157 80 205 0.0 0.0 0.00 0.00 0.00 86 1014.6
20260510073634 80 205 0.0 2.0 0.00 0.00 0.00 86 1014.6
20260510073131 80 205 0.0 2.0 0.00 0.00 0.00 86 1014.6
20260510072629 80 205 0.0 1.0 0.00 0.00 0.00 85 1014.7
20260510072207 80 205 0.0 1.0 0.00 0.00 0.00 84 1014.6
20260510071643 80 205 0.0 0.0 0.00 0.00 0.00 84 1014.7
20260510071221 80 205 0.0 0.0 0.00 0.00 0.00 84 1014.7
20260510070737 80 205 0.0 0.0 0.00 0.00 0.00 84 1014.6
20260510070133 80 205 0.0 2.0 0.00 0.00 0.00 84 1014.6
20260510065643 81 205 0.0 2.0 0.00 0.00 0.00 83 1014.5
20260510065200 81 205 0.0 3.0 0.00 0.00 0.00 83 1014.7
20260510064636 81 205 1.0 3.0 0.00 0.00 0.00 83 1014.7
20260510064153 81 205 0.0 2.0 0.00 0.00 0.00 82 1014.7
20260510063650 81 205 0.0 0.0 0.00 0.00 0.00 82 1014.8
20260510063226 81 205 0.0 0.0 0.00 0.00 0.00 81 1014.8
20260510062702 81 205 0.0 0.0 0.00 0.00 0.00 81 1014.8
20260510062158 81 205 0.0 0.0 0.00 0.00 0.00 81 1014.8
20260510061656 81 205 0.0 1.0 0.00 0.00 0.00 80 1014.9
20260510061131 81 205 0.0 2.0 0.00 0.00 0.00 80 1015.0
20260510060708 81 205 0.0 2.0 0.00 0.00 0.00 79 1014.9
20260510060225 82 205 0.0 3.0 0.00 0.00 0.00 79 1014.9
20260510055650 82 205 1.0 2.0 0.00 0.00 0.00 80 1014.9
20260510055243 82 205 0.0 2.0 0.00 0.00 0.00 79 1014.9
20260510055140 82 205 0.0 2.0 0.00 0.00 0.00 79 1014.9
20260510054641 82 205 0.0 2.0 0.00 0.00 0.00 79 1015.1
20260510054200 82 205 0.0 1.0 0.00 0.00 0.00 79 1015.0
20260510053712 82 205 0.0 2.0 0.00 0.00 0.00 79 1015.1
20260510053128 82 205 0.0 2.0 0.00 0.00 0.00 78 1015.1
20260510052630 82 205 0.0 2.0 0.00 0.00 0.00 78 1015.1
20260510052128 82 205 0.0 1.0 0.00 0.00 0.00 78 1015.3
20260510051720 82 205 0.0 2.0 0.00 0.00 0.00 78 1015.2
20260510051155 82 205 0.0 1.0 0.00 0.00 0.00 78 1015.2
20260510050632 82 205 0.0 1.0 0.00 0.00 0.00 78 1015.3
20260510050134 82 205 0.0 2.0 0.00 0.00 0.00 78 1015.4
20260510045721 82 205 1.0 2.0 0.00 0.00 0.00 78 1015.4
20260510045237 82 205 0.0 1.0 0.00 0.00 0.00 79 1015.5
20260510044631 82 205 0.0 2.0 0.00 0.00 0.00 79 1015.5
20260510044149 82 205 0.0 2.0 0.00 0.00 0.00 79 1015.5
20260510043706 82 205 0.0 2.0 0.00 0.00 0.00 79 1015.5
20260510043142 82 205 0.0 2.0 0.00 0.00 0.00 79 1015.6
20260510042700 82 205 0.0 1.0 0.00 0.00 0.00 78 1015.5
20260510042218 83 205 0.0 1.0 0.00 0.00 0.00 78 1015.5
20260510041633 83 205 0.0 1.0 0.00 0.00 0.00 79 1015.5
20260510041129 83 205 0.0 2.0 0.00 0.00 0.00 78 1015.5
20260510040726 83 205 0.0 3.0 0.00 0.00 0.00 78 1015.5
20260510040644 83 205 0.0 3.0 0.00 0.00 0.00 78 1015.5
20260510040240 83 205 1.0 3.0 0.00 0.00 0.00 78 1015.6
20260510040136 83 205 1.0 3.0 0.00 0.00 0.00 78 1015.6
20260510035643 83 205 1.0 3.0 0.00 0.00 0.00 78 1015.6
20260510035141 83 205 1.0 2.0 0.00 0.00 0.00 78 1015.6
20260510034717 83 205 1.0 2.0 0.00 0.00 0.00 79 1015.5
20260510034233 83 205 0.0 1.0 0.00 0.00 0.00 79 1015.4
20260510034150 83 205 0.0 1.0 0.00 0.00 0.00 79 1015.4
20260510033706 83 205 0.0 2.0 0.00 0.00 0.00 79 1015.5
20260510033141 83 205 0.0 3.0 0.00 0.00 0.00 79 1015.4
20260510032718 82 205 1.0 3.0 0.00 0.00 0.00 80 1015.4
20260510032153 82 205 1.0 3.0 0.00 0.00 0.00 79 1015.3
20260510031630 83 206 1.0 3.0 0.00 0.00 0.00 79 1015.3
20260510031227 83 202 1.0 3.0 0.00 0.00 0.00 80 1015.2
20260510030719 83 202 0.0 6.0 0.00 0.00 0.00 79 1015.3
20260510030138 83 202 2.0 6.0 0.00 0.00 0.00 80 1015.4
20260510025742 83 206 1.0 4.0 0.00 0.00 0.00 79 1015.3
20260510025136 83 206 1.0 4.0 0.00 0.00 0.00 79 1015.2
20260510024714 83 208 2.0 3.0 0.00 0.00 0.00 79 1015.2
20260510024209 83 191 1.0 5.0 0.00 0.00 0.00 79 1015.2
20260510023706 83 186 2.0 6.0 0.00 0.00 0.00 78 1015.1
20260510023142 83 169 2.0 4.0 0.00 0.00 0.00 78 1015.0
20260510022741 83 188 2.0 4.0 0.00 0.00 0.00 78 1015.1
20260510022658 83 188 2.0 4.0 0.00 0.00 0.00 78 1015.1
20260510022135 83 196 1.0 8.0 0.00 0.00 0.00 78 1014.9
20260510021633 83 148 2.0 8.0 0.00 0.00 0.00 78 1014.6
20260510021212 83 157 3.0 8.0 0.00 0.00 0.00 78 1014.5
20260510020707 83 183 3.0 7.0 0.00 0.00 0.00 78 1014.5
20260510020244 83 162 4.0 7.0 0.00 0.00 0.00 78 1014.4
20260510015728 83 186 3.0 7.0 0.00 0.00 0.00 78 1014.4
20260510015143 83 201 4.0 7.0 0.00 0.00 0.00 78 1014.4
20260510014640 83 198 3.0 7.0 0.00 0.00 0.00 77 1014.5
20260510014137 83 196 3.0 9.0 0.00 0.00 0.00 77 1014.4
20260510013715 83 162 3.0 9.0 0.00 0.00 0.00 77 1014.3
20260510013151 83 169 3.0 8.0 0.00 0.00 0.00 77 1014.3
20260510012708 83 138 4.0 9.0 0.00 0.00 0.00 77 1014.3
20260510012145 83 171 2.0 10.0 0.00 0.00 0.00 78 1014.3
20260510011643 83 161 4.0 10.0 0.00 0.00 0.00 79 1014.2
20260510011140 83 166 4.0 8.0 0.00 0.00 0.00 80 1014.1
20260510010656 83 198 3.0 8.0 0.00 0.00 0.00 80 1013.9
20260510010132 83 134 2.0 8.0 0.00 0.00 0.00 80 1014.0
20260510005639 83 138 3.0 8.0 0.00 0.00 0.00 80 1013.6
20260510005137 83 175 4.0 8.0 0.00 0.00 0.00 79 1013.6
20260510004734 83 236 3.0 8.0 0.00 0.00 0.00 80 1013.6
20260510004207 83 171 4.0 10.0 0.00 0.00 0.00 80 1013.4
20260510003643 83 158 5.0 12.0 0.00 0.00 0.00 79 1013.4
20260510003141 83 167 4.0 13.0 0.00 0.00 0.00 79 1013.3
20260510002721 83 143 7.0 13.0 0.00 0.00 0.00 80 1013.2
20260510002156 83 163 5.0 11.0 0.00 0.00 0.00 80 1013.2
20260510001711 83 167 5.0 15.0 0.00 0.00 0.00 81 1013.0
20260510001205 84 187 6.0 15.0 0.00 0.00 0.00 81 1013.0
20260510000640 84 152 5.0 12.0 0.00 0.00 0.00 81 1012.9
20260510000136 84 250 4.0 13.0 0.00 0.00 0.00 81 1012.8
20260509235645 84 175 7.0 14.0 0.00 0.00 0.00 80 1012.9
20260509235143 84 121 5.0 10.0 0.00 0.00 0.00 80 1012.8
20260509234701 84 147 7.0 12.0 0.00 0.00 0.00 80 1012.9
20260509234138 84 168 5.0 11.0 0.00 0.00 0.00 80 1012.8
20260509233656 84 171 6.0 10.0 0.00 0.00 0.00 80 1012.8
20260509233232 84 161 4.0 13.0 0.00 0.00 0.00 79 1012.7
20260509233129 84 161 4.0 13.0 0.00 0.00 0.00 79 1012.7
20260509232646 84 158 8.0 13.0 0.00 0.00 0.00 79 1012.6
20260509232204 84 148 7.0 13.0 0.00 0.00 0.00 80 1012.6
20260509231641 84 153 7.0 14.0 0.00 0.00 0.00 80 1012.6
20260509231139 84 121 6.0 13.0 0.00 0.00 0.00 80 1012.5
20260509230738 84 202 6.0 13.0 0.00 0.00 0.00 80 1012.5
20260509230635 84 202 6.0 13.0 0.00 0.00 0.00 80 1012.5
20260509230133 85 190 7.0 18.0 0.00 0.00 0.00 79 1012.4
20260509225642 85 175 7.0 14.0 0.00 0.00 0.00 78 1012.3
20260509225159 85 98 9.0 16.0 0.00 0.00 0.00 78 1012.3
20260509224715 85 145 6.0 14.0 0.00 0.00 0.00 78 1012.3
20260509224211 85 162 7.0 16.0 0.00 0.00 0.00 78 1012.3
20260509223646 85 161 8.0 16.0 0.00 0.00 0.00 77 1012.4
20260509223144 85 173 8.0 17.0 0.00 0.00 0.00 76 1012.4
20260509222640 86 113 7.0 17.0 0.00 0.00 0.00 76 1012.3
20260509222138 85 138 5.0 17.0 0.00 0.00 0.00 76 1012.3
20260509221716 85 215 8.0 17.0 0.00 0.00 0.00 76 1012.2
20260509221231 85 158 8.0 17.0 0.00 0.00 0.00 77 1012.2
20260509220645 86 151 9.0 17.0 0.00 0.00 0.00 77 1012.2